RH
80 76 70 61 53 47 46 46 43 39 39 39 38 38 39 39 39 40 43 47 48 47 44 45 46 46 43 40 38 38 41 42 42 43 46 49 52 54 57 58 58 58 58 59 60 60 60 60 63 66 64 64 64 65 66 66 68 70 72 76 75 72 75 78 80 80 81 83 79 76 74 72 73 73 73 71 71 71 72 73 73 73 70 66 64
74 69 61 53 48 46 45 48 45 41 40 39 38 38 39 40 41 44 47 48 47 45 45 47 46 44 40 37 38 39 41 41 41 43 46 49 51 54 57 58 58 57 57 58 59 59 60 60 62 64 63 63 64 65 65 66 67 70 73 76 76 74 75 78 79 79 82 84 81 79 76 75 74 73 73 72 72 72 72 70 70 72 70 66 65
71 65 56 49 46 47 47 48 46 40 40 40 39 39 39 41 45 48 48 46 45 45 46 45 43 41 39 39 40 41 41 40 41 44 46 47 49 52 55 58 58 57 57 58 59 59 59 59 60 60 62 62 63 64 65 66 67 68 72 75 75 73 75 76 77 77 81 85 84 83 80 77 77 75 72 72 74 72 71 69 69 73 71 67 67
67 62 55 50 49 50 49 49 44 39 41 41 40 40 41 44 47 48 46 44 43 42 42 42 42 42 41 40 39 40 40 40 42 45 45 45 48 49 51 54 56 55 56 56 57 57 56 57 58 58 59 60 61 64 65 66 66 66 70 73 72 70 72 74 76 77 80 83 84 85 84 81 79 78 75 73 75 74 72 72 71 73 72 69 68
63 58 54 51 51 52 51 51 45 40 42 42 41 40 42 44 46 45 43 42 39 39 40 42 44 42 39 37 37 37 39 40 42 45 45 44 45 48 50 52 52 53 54 55 56 55 54 56 57 57 59 59 60 63 65 66 65 65 67 69 69 68 70 71 73 75 78 81 82 84 84 83 80 78 77 75 75 74 74 74 73 74 74 72 71
61 57 55 53 52 52 52 52 45 42 42 41 40 39 40 43 43 42 40 37 36 38 41 44 43 40 37 37 37 37 39 40 41 44 45 44 44 47 49 50 50 51 52 54 55 54 54 55 56 57 59 59 61 63 65 65 65 65 65 65 65 66 66 67 69 71 75 79 80 81 80 81 81 77 77 76 74 75 75 75 75 74 74 73 72
61 57 58 57 55 53 53 50 45 42 41 40 39 38 39 41 41 38 35 34 35 39 42 41 41 40 38 38 39 39 39 39 41 43 45 44 43 45 47 49 48 49 51 52 53 54 54 55 56 57 59 60 62 64 65 65 65 64 65 64 62 63 63 65 67 68 73 77 77 78 78 79 80 78 75 75 74 75 75 75 75 74 73 74 73
60 57 58 58 56 54 51 49 45 42 41 39 39 38 38 39 38 34 33 34 37 40 40 39 41 40 38 40 41 41 40 40 41 43 44 44 44 44 46 48 48 47 48 48 50 51 53 54 56 57 59 61 63 65 67 66 63 62 62 63 62 62 61 63 66 66 70 75 75 76 77 77 79 79 76 73 74 76 74 74 75 73 74 76 74
58 56 56 56 54 51 49 47 45 43 41 40 39 38 38 37 34 32 34 36 38 40 40 40 41 39 38 41 43 43 42 42 42 42 42 43 43 43 44 48 47 46 46 46 46 48 50 51 54 57 59 61 63 66 68 66 64 62 60 61 61 61 61 63 65 66 68 73 73 74 76 76 77 78 77 74 74 77 74 72 74 74 75 76 76
55 54 54 54 52 51 49 47 45 44 43 41 39 38 37 34 32 33 36 37 39 40 41 42 42 39 39 43 44 44 43 42 41 40 40 41 42 42 43 47 48 47 46 46 45 45 47 48 50 53 56 58 62 65 66 64 63 63 61 61 61 60 63 66 67 65 66 70 71 73 77 76 76 76 77 76 75 77 76 73 74 76 75 76 77
54 51 51 51 51 50 50 48 46 45 45 43 41 38 35 33 33 35 35 36 38 40 42 43 41 40 43 45 45 44 43 42 40 38 38 39 41 41 42 45 48 49 49 48 47 46 46 45 47 48 51 54 57 60 61 61 62 63 62 62 62 62 64 66 68 67 66 69 70 72 76 77 77 75 76 76 75 77 77 75 74 75 76 76 78
55 50 48 48 48 49 49 48 47 46 45 44 41 38 36 35 35 35 35 35 35 37 39 40 41 43 46 46 44 43 42 41 39 36 36 37 39 41 42 44 48 51 52 52 50 49 47 45 45 45 47 49 52 55 57 59 60 62 61 60 61 63 64 66 68 68 68 69 71 72 74 76 76 76 75 75 76 77 78 77 74 76 76 77 78
58 54 49 47 47 47 47 45 45 45 44 42 39 36 36 36 35 35 35 34 34 35 38 40 42 45 46 45 43 41 40 39 38 37 36 36 38 41 42 43 48 52 53 52 51 50 49 48 46 46 46 47 48 50 52 53 56 59 59 59 60 63 67 68 67 68 67 68 72 74 74 75 75 76 74 74 75 77 79 78 75 75 77 76 77
58 56 53 50 48 47 46 44 43 42 41 38 36 36 36 36 35 35 36 35 35 36 39 42 43 44 44 43 41 39 37 37 38 39 38 37 37 40 41 44 49 52 52 51 49 48 47 47 47 47 47 46 46 46 48 49 53 56 57 58 59 64 69 69 66 67 67 67 73 75 76 76 75 75 75 74 75 77 78 78 75 74 77 77 76
57 56 55 54 51 49 47 46 45 44 43 43 43 41 41 39 38 38 38 37 37 37 39 41 41 40 40 39 38 36 34 35 37 39 40 39 38 39 41 44 49 50 50 48 47 45 43 44 46 47 48 48 49 49 50 51 54 57 58 60 63 67 70 69 68 67 68 70 74 74 75 76 77 75 73 74 74 75 77 76 75 75 77 77 77
58 56 54 54 53 51 50 49 50 49 50 51 51 50 48 44 41 39 38 37 36 36 36 35 35 35 35 35 33 33 33 34 36 38 40 41 40 40 41 44 49 50 49 48 46 44 43 43 44 46 48 51 53 54 54 56 57 59 61 64 67 72 73 73 71 67 67 72 73 72 73 76 78 77 74 74 73 74 75 75 75 76 77 78 78
59 57 54 54 53 52 51 50 51 52 52 52 51 51 48 44 40 38 37 35 34 33 32 31 30 30 31 30 30 32 33 34 35 37 41 42 42 42 43 47 50 51 50 48 48 47 47 47 47 48 50 53 56 57 57 58 59 61 65 67 68 72 73 73 74 68 66 71 73 72 73 76 78 78 76 75 74 74 74 75 76 77 77 78 79
60 57 55 55 54 52 50 50 50 50 49 48 47 45 43 40 38 37 35 34 33 32 30 29 28 28 28 29 32 34 34 34 36 39 43 44 45 46 48 50 51 53 54 54 54 54 55 56 56 55 56 58 60 60 60 59 61 65 68 69 69 70 72 73 74 71 67 69 73 74 75 77 78 77 76 76 76 75 74 74 76 77 77 79 80
58 57 56 55 54 52 50 49 49 48 48 46 44 43 42 39 37 35 34 33 33 31 29 29 28 29 30 34 36 36 36 36 38 41 43 45 47 49 50 53 54 55 59 61 62 63 64 66 65 64 64 66 67 67 67 67 69 71 71 72 72 71 72 72 72 71 68 68 72 75 76 76 75 74 74 76 75 75 75 73 75 77 76 79 79
53 54 55 53 52 51 50 48 48 48 48 46 43 42 40 38 36 34 34 33 32 32 32 33 34 35 37 39 39 37 37 36 38 41 43 47 50 51 53 57 59 60 64 68 69 70 71 73 72 70 72 74 74 73 73 72 72 73 75 74 73 71 70 70 69 69 68 66 69 74 76 75 74 71 72 75 75 74 75 73 73 77 78 78 79
49 50 51 50 49 49 48 47 47 47 45 43 40 39 37 36 36 36 35 34 35 36 37 39 38 38 38 38 39 38 38 38 41 46 50 54 56 58 60 64 65 67 71 72 72 72 74 75 72 70 73 75 73 72 71 71 72 77 78 76 74 71 69 70 68 68 69 68 69 73 77 76 73 70 68 72 74 73 75 74 72 75 79 79 79
46 46 46 46 46 45 44 44 45 44 42 41 38 38 38 38 39 38 36 36 37 38 38 38 37 38 39 40 41 40 42 45 49 54 58 60 63 65 67 68 68 68 69 70 70 70 72 71 66 64 67 68 67 66 66 67 69 72 75 76 77 73 71 71 69 68 70 70 71 74 77 75 71 70 67 67 72 73 74 75 73 72 75 78 81
43 42 42 42 41 42 41 41 42 42 41 41 39 39 40 39 40 39 38 38 38 38 37 38 39 41 42 43 43 45 50 54 55 59 60 62 66 69 70 69 67 66 64 65 66 66 67 66 61 58 60 62 64 63 63 63 63 66 70 74 77 77 76 75 75 71 71 72 73 76 77 74 71 71 69 66 69 73 73 75 75 72 72 76 81
44 40 40 39 39 40 39 39 40 39 39 39 38 38 38 37 38 38 38 38 39 39 40 41 41 44 45 46 48 51 56 58 58 61 61 63 66 67 66 65 63 60 59 60 63 63 61 60 56 54 55 56 59 61 62 62 61 64 73 78 78 79 78 79 81 77 72 72 75 79 78 73 71 71 68 65 67 72 72 75 77 75 73 76 81
47 43 42 42 39 39 38 39 38 38 37 36 36 35 35 36 38 38 38 39 41 41 41 41 41 47 52 53 53 55 58 59 60 61 61 63 64 63 60 59 57 56 57 58 59 58 55 55 54 53 54 54 57 60 61 63 62 64 73 80 82 81 76 77 83 79 73 72 76 81 80 74 71 69 66 61 64 69 71 73 74 74 73 76 79
51 47 46 45 43 41 39 39 39 38 37 37 36 35 36 38 40 40 39 40 43 42 41 40 41 48 54 55 56 57 59 60 62 62 63 63 63 60 58 56 56 56 57 58 55 52 50 53 54 54 54 55 57 58 61 65 68 69 73 77 82 80 75 77 81 78 74 74 78 81 78 74 72 72 68 60 59 64 68 70 71 73 74 75 78
54 50 48 47 46 45 43 41 42 40 39 39 39 39 39 41 42 42 42 42 44 42 41 43 47 51 55 58 61 62 62 63 63 64 64 64 63 60 58 57 57 57 57 57 54 49 46 48 50 48 48 50 52 56 62 68 74 79 79 79 82 81 80 83 82 77 75 76 78 81 77 75 74 72 66 60 58 58 59 62 63 66 70 72 75
59 56 57 58 55 54 49 47 48 45 43 42 43 43 43 44 46 46 45 46 45 44 45 50 55 58 60 62 64 65 66 66 65 64 63 62 61 59 58 59 58 57 58 56 50 45 43 43 43 43 45 46 48 52 59 69 80 85 86 86 86 86 87 87 82 78 77 77 79 81 78 76 75 69 62 59 61 61 59 58 56 59 62 66 71
61 63 69 72 71 68 61 58 56 53 52 49 49 48 47 48 49 49 48 50 51 50 54 58 60 62 62 65 68 70 69 69 69 66 64 62 61 59 57 58 59 58 57 53 47 43 41 41 42 43 45 46 46 48 57 70 80 84 88 89 89 91 92 86 82 80 78 81 82 81 78 75 73 68 63 63 64 66 65 63 62 63 63 65 70
63 65 71 74 73 72 70 70 67 64 64 62 59 53 50 51 51 52 52 55 59 59 63 65 65 67 68 70 71 72 71 70 69 68 67 64 62 59 56 57 60 59 53 49 46 43 41 41 42 44 45 46 46 47 56 71 78 81 87 89 92 95 90 84 81 80 81 84 82 79 77 73 72 69 66 67 66 64 63 64 67 68 69 71 72
64 67 70 70 70 70 70 73 72 68 69 70 66 58 54 55 55 56 57 60 62 65 70 71 71 72 72 74 73 72 70 68 69 69 67 64 62 61 60 60 61 56 47 44 44 42 41 40 41 44 45 46 47 48 57 72 77 79 85 87 90 90 84 82 82 82 83 83 80 78 76 71 69 68 67 66 64 63 65 68 72 72 71 75 76
65 68 70 70 71 71 71 73 72 67 69 71 69 63 59 59 60 61 62 64 65 69 73 73 74 75 73 72 72 70 68 67 69 68 66 63 62 63 63 62 60 52 43 40 41 39 39 40 42 45 45 46 49 51 59 73 76 75 79 83 86 85 83 84 84 84 82 78 75 73 72 67 64 64 66 63 62 65 68 71 73 72 71 73 75
67 69 72 72 72 73 73 74 73 71 71 72 71 67 65 63 63 65 65 66 69 71 74 73 74 75 74 72 71 69 68 68 68 67 65 63 65 66 61 58 55 49 40 37 38 38 39 41 44 44 44 47 50 53 59 70 75 74 75 78 82 84 84 85 84 81 76 70 68 65 64 63 60 59 62 63 64 67 69 71 70 67 72 77 74
70 71 72 72 72 72 71 70 71 72 73 75 73 71 71 69 66 67 67 68 69 71 73 72 72 73 73 71 69 69 69 69 68 67 66 66 69 64 53 49 48 43 38 36 37 37 40 43 44 43 43 46 49 53 58 65 69 71 71 71 75 80 82 81 77 74 71 68 68 68 65 61 57 55 57 59 63 64 62 66 68 61 63 70 67
72 73 73 72 71 70 69 68 68 69 71 74 75 74 73 71 70 69 69 69 69 70 70 69 69 71 70 70 70 71 71 70 69 67 67 71 69 55 43 40 38 36 36 36 36 36 40 44 43 43 44 47 51 53 55 59 62 64 64 64 68 74 76 73 70 71 71 74 76 75 72 64 58 56 55 55 54 54 51 54 60 54 49 54 56
71 71 72 71 71 71 71 70 69 68 68 70 72 73 72 71 71 70 69 68 68 69 69 69 71 71 70 72 73 74 74 71 69 68 71 71 59 43 37 35 32 31 31 32 34 36 39 42 42 41 43 48 52 53 55 59 60 61 62 63 65 67 70 68 68 72 73 76 77 75 72 67 62 57 55 53 50 48 45 45 50 50 47 50 52
68 70 71 71 71 71 72 72 71 70 70 69 70 71 72 73 72 71 70 70 69 69 72 74 74 72 71 72 73 74 73 72 72 72 70 61 47 38 35 32 29 28 27 28 31 33 37 42 43 43 43 47 50 51 54 57 60 62 63 64 67 69 71 72 70 72 72 71 70 66 65 64 58 56 54 53 52 48 44 43 44 45 46 49 51
65 69 71 71 72 72 73 74 74 73 73 73 73 72 73 74 73 72 72 72 70 71 73 74 73 70 69 70 70 70 69 69 68 64 56 46 39 36 34 31 30 29 28 29 28 30 34 39 43 46 46 47 49 49 52 54 56 59 60 61 65 68 69 70 68 66 63 62 61 60 62 61 54 54 54 51 51 49 46 45 43 43 44 47 51
58 62 66 67 68 70 71 71 72 72 72 74 74 74 74 74 73 73 73 72 71 70 71 70 70 67 65 64 63 59 58 57 53 46 39 35 34 35 35 34 33 32 30 30 29 28 31 35 39 44 46 46 46 47 49 51 51 54 55 54 57 59 59 60 60 58 57 58 60 61 61 58 53 52 51 47 46 47 45 45 44 43 45 47 51
53 55 58 61 62 64 66 66 66 66 67 69 70 71 72 72 72 72 71 71 70 69 69 68 67 65 62 59 54 49 47 46 42 37 34 33 34 35 37 35 34 33 32 31 30 28 29 33 36 40 43 45 45 45 46 48 48 49 51 51 51 53 53 54 55 55 58 59 59 59 58 57 55 52 48 43 42 42 41 41 39 39 42 44 48
54 53 54 58 57 57 59 61 62 62 62 64 64 65 66 68 68 68 68 70 71 70 69 69 66 63 60 56 49 45 44 40 37 36 35 34 34 36 37 34 34 33 32 31 30 27 26 30 35 37 39 41 43 41 42 44 44 46 48 49 48 49 50 51 53 55 57 57 55 55 54 52 50 48 45 39 37 37 37 37 35 35 37 39 44
55 54 52 53 53 52 53 56 58 59 59 59 59 60 62 63 64 64 66 68 69 68 68 68 64 62 60 55 49 44 40 37 36 37 37 34 33 35 36 36 36 34 32 30 28 25 22 25 32 36 36 38 39 38 38 39 40 41 44 45 45 45 44 45 48 49 48 46 45 46 44 40 39 39 37 31 30 32 33 33 33 33 33 36 42
56 54 50 49 49 49 50 53 54 56 58 58 58 60 61 61 61 61 63 64 65 65 65 64 61 60 58 53 47 41 38 37 38 39 38 35 34 36 37 38 38 35 33 31 28 25 21 24 30 33 34 36 37 35 33 33 33 34 36 38 39 40 40 39 39 37 35 35 36 38 36 33 32 31 28 24 25 27 28 28 28 31 31 33 38
56 54 52 50 49 47 48 51 52 53 54 56 58 59 59 60 59 59 61 63 63 62 63 62 61 59 53 46 43 40 38 40 41 41 39 39 39 39 39 39 37 33 31 29 28 27 22 25 29 30 31 32 32 33 30 29 29 28 29 30 31 32 32 31 31 29 30 33 34 34 32 30 29 28 28 26 26 26 25 23 23 27 29 30 36
58 57 54 53 51 49 49 51 52 52 51 52 55 55 56 58 58 58 60 61 60 60 60 60 57 55 49 44 42 41 41 43 44 42 41 43 43 42 40 38 36 32 29 27 28 28 23 24 28 29 30 30 28 28 30 29 28 27 26 26 26 26 25 25 27 28 28 31 34 34 31 29 30 32 34 32 30 28 24 20 19 22 27 30 34
59 58 56 56 54 52 53 54 53 51 50 50 52 54 56 57 57 58 58 57 57 58 58 56 53 51 47 44 42 43 44 45 46 46 46 46 43 42 40 38 36 33 30 29 28 29 25 23 27 29 29 30 28 26 28 28 27 27 25 25 24 23 23 23 22 24 27 29 33 35 34 33 33 35 38 37 33 30 25 22 19 21 27 31 34
56 58 57 56 54 52 53 54 52 50 48 49 50 53 55 56 55 56 54 53 55 55 55 53 50 48 45 43 43 44 46 49 50 50 49 47 44 43 41 38 35 32 30 30 29 30 29 24 26 29 29 29 29 28 26 26 25 25 25 24 24 22 22 21 20 21 24 24 27 30 31 30 31 33 37 37 34 30 28 26 23 22 24 28 32
53 56 57 55 52 50 49 50 49 47 45 47 49 50 52 54 53 52 52 52 54 55 54 52 48 46 45 44 44 46 49 52 53 50 48 48 46 44 42 38 34 31 32 32 31 32 32 28 25 27 28 28 29 30 28 27 26 24 23 22 22 22 20 20 19 20 21 19 19 21 22 20 23 28 33 35 33 30 28 28 26 23 21 23 28
53 55 56 54 51 48 46 44 43 43 43 45 47 47 49 52 52 52 53 52 54 55 53 50 47 47 47 47 49 51 53 55 54 51 49 48 47 44 42 38 33 31 32 32 34 34 32 29 26 25 26 26 26 28 28 27 25 22 21 19 19 18 17 17 18 17 17 16 15 16 17 17 19 24 28 31 33 31 28 28 28 25 22 21 26
53 53 54 52 49 48 44 42 41 42 42 44 46 47 48 50 51 53 53 53 51 50 49 48 48 48 48 49 53 56 57 57 56 53 50 48 47 44 40 36 32 31 31 32 35 34 30 29 28 25 24 24 23 23 22 22 21 20 18 17 16 16 15 15 16 15 15 14 13 13 15 16 17 20 25 30 34 33 28 26 27 26 26 24 24
52 52 52 50 47 47 44 43 45 46 46 46 46 48 49 48 50 53 54 52 49 49 49 49 48 48 49 51 56 60 61 60 57 53 50 47 46 44 38 35 33 32 33 34 34 32 29 27 28 25 21 21 20 17 17 18 17 17 17 17 16 15 15 15 15 15 14 13 12 11 13 17 18 18 21 26 30 32 29 26 25 24 25 26 23